Wolke Sonne

Wetter Ammerndorf

Gehe zu: Roßtal | Roßtal 2

Tageswerte vom Freitag, 13.12.2019

Optionen

Tag:
Erweitert:

Alle Werte vom Freitag, 13.12.2019

Einen Moment bitte, die Daten werden aufbereitet...

UhrzeitTemperaturBoden 10cmBoden 20cmFeuchteLuftdruckNiederschlagEvapotranspirationWindWindböenWindrichtungSolarstrahlungUV-IndexSonne?Uhrzeit
Diagramm IconDiagramm IconDiagramm IconDiagramm IconDiagramm IconDiagramm IconDiagramm IconDiagramm IconDiagramm IconDiagramm IconDiagramm IconDiagramm IconDiagramm Icon
00:00-0,7 °C 3,3 °C 4,4 °C 94 % 995,9 hPa 0,0 mm - 1,4 km/h - SO 0,0 W/qm 0,0 nein 00:00
00:05-0,7 °C 3,3 °C 4,4 °C 94 % 995,8 hPa 0,0 mm 0,0 mm 1,4 km/h - S 0,0 W/qm 0,0 nein 00:05
00:10-0,8 °C 3,3 °C 4,4 °C 94 % 995,6 hPa 0,0 mm 0,0 mm 1,4 km/h - O 0,0 W/qm 0,0 nein 00:10
00:15-0,8 °C 3,3 °C 4,4 °C 94 % 995,5 hPa 0,0 mm - 1,4 km/h - SO 0,0 W/qm 0,0 nein 00:15
00:20-0,8 °C 3,3 °C 4,4 °C 94 % 995,4 hPa 0,0 mm - 1,4 km/h - SSO 0,0 W/qm 0,0 nein 00:20
00:25-0,9 °C 3,3 °C 4,4 °C 94 % 995,1 hPa 0,0 mm - 1,4 km/h - S 0,0 W/qm 0,0 nein 00:25
00:30-0,9 °C 3,3 °C 4,4 °C 94 % 995,0 hPa 0,0 mm - 1,4 km/h - SSO 0,0 W/qm 0,0 nein 00:30
00:35-0,9 °C 3,3 °C 4,4 °C 94 % 994,9 hPa 0,0 mm - 1,4 km/h - SO 0,0 W/qm 0,0 nein 00:35
00:40-1,0 °C 3,3 °C 4,4 °C 94 % 994,8 hPa 0,0 mm - 1,4 km/h - SO 0,0 W/qm 0,0 nein 00:40
00:45-1,0 °C 3,3 °C 4,4 °C 94 % 994,6 hPa 0,0 mm - 1,4 km/h - SSO 0,0 W/qm 0,0 nein 00:45
00:50-1,0 °C 3,3 °C 4,4 °C 94 % 994,2 hPa 0,0 mm - 3,2 km/h - S 0,0 W/qm 0,0 nein 00:50
00:55-1,0 °C 3,3 °C 4,4 °C 94 % 994,1 hPa 0,0 mm - 3,2 km/h - SSO 0,0 W/qm 0,0 nein 00:55
01:00-1,1 °C 3,3 °C 4,4 °C 94 % 994,1 hPa 0,0 mm - 3,2 km/h - SSO 0,0 W/qm 0,0 nein 01:00
01:05-1,1 °C 3,3 °C 4,4 °C 94 % 994,0 hPa 0,0 mm 0,0 mm 3,2 km/h - SO 0,0 W/qm 0,0 nein 01:05
01:10-1,1 °C 3,3 °C 4,4 °C 94 % 993,8 hPa 0,0 mm 0,0 mm 1,4 km/h - O 0,0 W/qm 0,0 nein 01:10
01:15-1,1 °C 3,3 °C 4,4 °C 94 % 993,7 hPa 0,0 mm - 0,0 km/h - OSO 0,0 W/qm 0,0 nein 01:15
01:20-1,1 °C 3,3 °C 4,4 °C 94 % 993,5 hPa 0,0 mm - 1,4 km/h - SSO 0,0 W/qm 0,0 nein 01:20
01:25-1,2 °C 3,3 °C 4,4 °C 94 % 993,4 hPa 0,0 mm - 1,4 km/h - SSO 0,0 W/qm 0,0 nein 01:25
01:30-1,2 °C 3,3 °C 4,4 °C 94 % 993,3 hPa 0,0 mm - 1,4 km/h - S 0,0 W/qm 0,0 nein 01:30
01:35-1,2 °C 3,3 °C 4,4 °C 94 % 993,1 hPa 0,0 mm - 1,4 km/h - SSO 0,0 W/qm 0,0 nein 01:35
01:40-1,2 °C 3,3 °C 4,4 °C 94 % 993,1 hPa 0,0 mm - 1,4 km/h - OSO 0,0 W/qm 0,0 nein 01:40
01:45-1,2 °C 3,3 °C 4,4 °C 94 % 992,9 hPa 0,0 mm - 1,4 km/h - SO 0,0 W/qm 0,0 nein 01:45
01:50-1,2 °C 3,3 °C 4,4 °C 94 % 992,7 hPa 0,0 mm - 1,4 km/h - SO 0,0 W/qm 0,0 nein 01:50
01:55-1,2 °C 3,3 °C 4,4 °C 94 % 992,5 hPa 0,0 mm - 1,4 km/h - SO 0,0 W/qm 0,0 nein 01:55
UhrzeitTemperaturBoden 10cmBoden 20cmFeuchteLuftdruckNiederschlagEvapotranspirationWindWindböenWindrichtungSolarstrahlungUV-IndexSonne?Uhrzeit
02:00-1,2 °C 3,3 °C 4,4 °C 94 % 992,3 hPa 0,0 mm - 0,0 km/h - SSO 0,0 W/qm 0,0 nein 02:00
02:05-1,2 °C 3,3 °C 4,4 °C 94 % 992,3 hPa 0,0 mm 0,0 mm 1,4 km/h - SO 0,0 W/qm 0,0 nein 02:05
02:10-1,2 °C 3,3 °C 4,4 °C 94 % 992,2 hPa 0,0 mm 0,0 mm 1,4 km/h - SSW 0,0 W/qm 0,0 nein 02:10
02:15-1,3 °C 3,3 °C 4,4 °C 94 % 992,1 hPa 0,0 mm - 1,4 km/h - SO 0,0 W/qm 0,0 nein 02:15
02:20-1,3 °C 3,3 °C 4,4 °C 94 % 992,0 hPa 0,0 mm - 3,2 km/h - O 0,0 W/qm 0,0 nein 02:20
02:25-1,3 °C 3,3 °C 4,4 °C 94 % 991,8 hPa 0,0 mm - 3,2 km/h - SO 0,0 W/qm 0,0 nein 02:25
02:30-1,2 °C 3,3 °C 4,4 °C 94 % 991,5 hPa 0,0 mm - 4,7 km/h - SSO 0,0 W/qm 0,0 nein 02:30
02:35-1,2 °C 3,3 °C 4,4 °C 94 % 991,3 hPa 0,0 mm - 3,2 km/h - SSO 0,0 W/qm 0,0 nein 02:35
02:40-1,2 °C 3,3 °C 4,4 °C 94 % 991,2 hPa 0,0 mm - 3,2 km/h - SSO 0,0 W/qm 0,0 nein 02:40
02:45-1,2 °C 3,3 °C 4,4 °C 94 % 991,1 hPa 0,0 mm - 4,7 km/h - OSO 0,0 W/qm 0,0 nein 02:45
02:50-1,2 °C 3,3 °C 4,4 °C 94 % 991,1 hPa 0,0 mm - 3,2 km/h - O 0,0 W/qm 0,0 nein 02:50
02:55-1,2 °C 3,3 °C 4,4 °C 94 % 990,9 hPa 0,0 mm - 3,2 km/h - WNW 0,0 W/qm 0,0 nein 02:55
03:00-1,3 °C 3,3 °C 4,4 °C 94 % 990,8 hPa 0,0 mm - 4,7 km/h - SSO 0,0 W/qm 0,0 nein 03:00
03:05-1,3 °C 3,3 °C 4,4 °C 94 % 990,7 hPa 0,0 mm 0,0 mm 4,7 km/h - SSO 0,0 W/qm 0,0 nein 03:05
03:10-1,3 °C 3,3 °C 4,4 °C 94 % 990,5 hPa 0,0 mm 0,0 mm 4,7 km/h - SW 0,0 W/qm 0,0 nein 03:10
03:15-1,3 °C 3,3 °C 4,4 °C 94 % 990,5 hPa 0,0 mm - 4,7 km/h - S 0,0 W/qm 0,0 nein 03:15
03:20-1,3 °C 3,3 °C 4,4 °C 94 % 990,3 hPa 0,0 mm - 4,7 km/h - SSO 0,0 W/qm 0,0 nein 03:20
03:25-1,3 °C 3,3 °C 4,4 °C 94 % 990,2 hPa 0,0 mm - 4,7 km/h - S 0,0 W/qm 0,0 nein 03:25
03:30-1,3 °C 3,3 °C 4,4 °C 94 % 990,0 hPa 0,0 mm - 4,7 km/h - S 0,0 W/qm 0,0 nein 03:30
03:35-1,3 °C 3,3 °C 4,4 °C 94 % 989,7 hPa 0,0 mm - 3,2 km/h - O 0,0 W/qm 0,0 nein 03:35
03:40-1,3 °C 3,3 °C 4,4 °C 94 % 989,6 hPa 0,0 mm - 3,2 km/h - S 0,0 W/qm 0,0 nein 03:40
03:45-1,3 °C 3,3 °C 4,4 °C 94 % 989,4 hPa 0,0 mm - 3,2 km/h - SSW 0,0 W/qm 0,0 nein 03:45
03:50-1,3 °C 3,3 °C 4,4 °C 94 % 989,2 hPa 0,0 mm - 4,7 km/h - SSW 0,0 W/qm 0,0 nein 03:50
03:55-1,3 °C 3,3 °C 4,4 °C 94 % 989,1 hPa 0,0 mm - 4,7 km/h - S 0,0 W/qm 0,0 nein 03:55
UhrzeitTemperaturBoden 10cmBoden 20cmFeuchteLuftdruckNiederschlagEvapotranspirationWindWindböenWindrichtungSolarstrahlungUV-IndexSonne?Uhrzeit
04:00-1,2 °C 3,3 °C 4,4 °C 94 % 989,1 hPa 0,0 mm - 4,7 km/h - SO 0,0 W/qm 0,0 nein 04:00
04:05-1,1 °C 3,3 °C 4,4 °C 94 % 989,0 hPa 0,0 mm 0,0 mm 4,7 km/h - S 0,0 W/qm 0,0 nein 04:05
04:10-1,1 °C 3,3 °C 4,4 °C 94 % 988,9 hPa 0,0 mm 0,0 mm 4,7 km/h - SSO 0,0 W/qm 0,0 nein 04:10
04:15-1,1 °C 3,3 °C 4,4 °C 94 % 988,6 hPa 0,0 mm - 4,7 km/h - SSO 0,0 W/qm 0,0 nein 04:15
04:20-1,0 °C 3,3 °C 4,4 °C 94 % 988,4 hPa 0,0 mm - 6,5 km/h - SSO 0,0 W/qm 0,0 nein 04:20
04:25-0,9 °C 3,3 °C 4,4 °C 94 % 988,2 hPa 0,0 mm - 4,7 km/h - SSO 0,0 W/qm 0,0 nein 04:25
04:30-0,9 °C 3,3 °C 4,4 °C 94 % 988,1 hPa 0,0 mm - 4,7 km/h - SO 0,0 W/qm 0,0 nein 04:30
04:35-0,9 °C 3,3 °C 4,4 °C 94 % 988,0 hPa 0,0 mm - 4,7 km/h - S 0,0 W/qm 0,0 nein 04:35
04:40-0,9 °C 3,3 °C 4,4 °C 94 % 987,9 hPa 0,0 mm - 4,7 km/h - SSO 0,0 W/qm 0,0 nein 04:40
04:45-0,9 °C 3,3 °C 4,4 °C 93 % 987,8 hPa 0,0 mm - 4,7 km/h - S 0,0 W/qm 0,0 nein 04:45
04:50-0,8 °C 3,3 °C 4,4 °C 93 % 987,8 hPa 0,0 mm - 4,7 km/h - S 0,0 W/qm 0,0 nein 04:50
04:55-0,8 °C 3,3 °C 4,4 °C 94 % 987,7 hPa 0,0 mm - 4,7 km/h - SW 0,0 W/qm 0,0 nein 04:55
05:00-0,8 °C 3,3 °C 4,4 °C 93 % 987,6 hPa 0,0 mm - 4,7 km/h - S 0,0 W/qm 0,0 nein 05:00
05:05-0,7 °C 3,3 °C 4,4 °C 93 % 987,4 hPa 0,0 mm 0,0 mm 4,7 km/h - SSO 0,0 W/qm 0,0 nein 05:05
05:10-0,7 °C 3,3 °C 4,4 °C 93 % 987,2 hPa 0,0 mm 0,0 mm 4,7 km/h - S 0,0 W/qm 0,0 nein 05:10
05:15-0,7 °C 3,3 °C 4,4 °C 93 % 987,1 hPa 0,0 mm - 3,2 km/h - SSO 0,0 W/qm 0,0 nein 05:15
05:20-0,6 °C 3,3 °C 4,4 °C 93 % 986,9 hPa 0,0 mm - 3,2 km/h - SSO 0,0 W/qm 0,0 nein 05:20
05:25-0,6 °C 3,3 °C 4,4 °C 93 % 986,8 hPa 0,0 mm - 4,7 km/h - SSO 0,0 W/qm 0,0 nein 05:25
05:30-0,6 °C 3,3 °C 4,4 °C 93 % 986,8 hPa 0,0 mm - 6,5 km/h - SSW 0,0 W/qm 0,0 nein 05:30
05:35-0,5 °C 3,3 °C 4,4 °C 93 % 986,7 hPa 0,0 mm - 6,5 km/h - S 0,0 W/qm 0,0 nein 05:35
05:40-0,5 °C 3,3 °C 4,4 °C 93 % 986,5 hPa 0,0 mm - 7,9 km/h - S 0,0 W/qm 0,0 nein 05:40
05:45-0,4 °C 3,3 °C 4,4 °C 93 % 986,4 hPa 0,0 mm - 6,5 km/h - SSO 0,0 W/qm 0,0 nein 05:45
05:50-0,4 °C 3,3 °C 4,4 °C 93 % 986,1 hPa 0,0 mm - 4,7 km/h - S 0,0 W/qm 0,0 nein 05:50
05:55-0,4 °C 3,3 °C 4,4 °C 93 % 985,9 hPa 0,0 mm - 4,7 km/h - SO 0,0 W/qm 0,0 nein 05:55
UhrzeitTemperaturBoden 10cmBoden 20cmFeuchteLuftdruckNiederschlagEvapotranspirationWindWindböenWindrichtungSolarstrahlungUV-IndexSonne?Uhrzeit
06:00-0,4 °C 3,3 °C 4,4 °C 93 % 985,9 hPa 0,0 mm - 4,7 km/h - SSO 0,0 W/qm 0,0 nein 06:00
06:05-0,4 °C 3,3 °C 4,4 °C 93 % 985,7 hPa 0,0 mm 0,0 mm 6,5 km/h - SSO 0,0 W/qm 0,0 nein 06:05
06:10-0,4 °C 3,3 °C 4,4 °C 93 % 985,5 hPa 0,0 mm 0,0 mm 4,7 km/h - S 0,0 W/qm 0,0 nein 06:10
06:15-0,3 °C 3,3 °C 4,4 °C 93 % 985,4 hPa 0,0 mm - 4,7 km/h - SSW 0,0 W/qm 0,0 nein 06:15
06:20-0,3 °C 3,3 °C 4,4 °C 93 % 985,4 hPa 0,0 mm - 4,7 km/h - SSO 0,0 W/qm 0,0 nein 06:20
06:25-0,3 °C 3,3 °C 4,4 °C 93 % 985,3 hPa 0,0 mm - 4,7 km/h - SSO 0,0 W/qm 0,0 nein 06:25
06:30-0,3 °C 3,3 °C 4,4 °C 93 % 985,2 hPa 0,0 mm - 4,7 km/h - S 0,0 W/qm 0,0 nein 06:30
06:35-0,3 °C 3,3 °C 3,9 °C 93 % 985,1 hPa 0,2 mm - 4,7 km/h - S 0,0 W/qm 0,0 nein 06:35
06:40-0,3 °C 3,3 °C 3,9 °C 93 % 984,9 hPa 0,0 mm - 4,7 km/h - OSO 0,0 W/qm 0,0 nein 06:40
06:45-0,3 °C 3,3 °C 3,9 °C 93 % 984,7 hPa 0,0 mm - 4,7 km/h - S 0,0 W/qm 0,0 nein 06:45
06:50-0,3 °C 3,3 °C 3,9 °C 93 % 984,6 hPa 0,0 mm - 4,7 km/h - SSO 0,0 W/qm 0,0 nein 06:50
06:55-0,3 °C 3,3 °C 3,9 °C 93 % 984,4 hPa 0,2 mm - 4,7 km/h - O 0,0 W/qm 0,0 nein 06:55
07:00-0,4 °C 3,3 °C 3,9 °C 93 % 984,4 hPa 0,0 mm - 4,7 km/h - SSO 0,0 W/qm 0,0 nein 07:00
07:05-0,4 °C 3,3 °C 3,9 °C 93 % 984,2 hPa 0,0 mm 0,0 mm 3,2 km/h - SSO 0,0 W/qm 0,0 nein 07:05
07:10-0,4 °C 3,3 °C 3,9 °C 93 % 984,1 hPa 0,0 mm 0,0 mm 3,2 km/h - SSO 0,0 W/qm 0,0 nein 07:10
07:15-0,4 °C 3,3 °C 3,9 °C 93 % 983,9 hPa 0,0 mm - 3,2 km/h - S 0,0 W/qm 0,0 nein 07:15
07:20-0,4 °C 3,3 °C 3,9 °C 93 % 983,8 hPa 0,0 mm - 3,2 km/h - SSO 0,0 W/qm 0,0 nein 07:20
07:25-0,4 °C 3,3 °C 3,9 °C 93 % 983,6 hPa 0,0 mm - 3,2 km/h - S 0,0 W/qm 0,0 nein 07:25
07:30-0,4 °C 3,3 °C 3,9 °C 93 % 983,5 hPa 0,0 mm - 1,4 km/h - OSO 0,0 W/qm 0,0 nein 07:30
07:35-0,4 °C 3,3 °C 3,9 °C 93 % 983,4 hPa 0,2 mm - 1,4 km/h - S 0,0 W/qm 0,0 nein 07:35
07:40-0,4 °C 3,3 °C 3,9 °C 93 % 983,3 hPa 0,0 mm - 1,4 km/h - SSO 0,0 W/qm 0,0 nein 07:40
07:45-0,4 °C 3,3 °C 3,9 °C 93 % 983,2 hPa 0,0 mm - 3,2 km/h - SO 0,0 W/qm 0,0 nein 07:45
07:50-0,4 °C 2,8 °C 3,9 °C 93 % 983,0 hPa 0,0 mm - 3,2 km/h - SSO 0,0 W/qm 0,0 nein 07:50
07:55-0,4 °C 2,8 °C 3,9 °C 93 % 982,9 hPa 0,0 mm - 3,2 km/h - SO 0,0 W/qm 0,0 nein 07:55
UhrzeitTemperaturBoden 10cmBoden 20cmFeuchteLuftdruckNiederschlagEvapotranspirationWindWindböenWindrichtungSolarstrahlungUV-IndexSonne?Uhrzeit
08:00-0,4 °C 2,8 °C 3,9 °C 93 % 982,8 hPa 0,0 mm - 3,2 km/h - S 0,0 W/qm 0,0 nein 08:00
08:05-0,4 °C 2,8 °C 3,9 °C 93 % 982,7 hPa 0,0 mm 0,0 mm 1,4 km/h - SSO 0,0 W/qm 0,0 nein 08:05
08:10-0,4 °C 2,8 °C 3,9 °C 93 % 982,6 hPa 0,0 mm 0,0 mm 1,4 km/h - SSO 5,0 W/qm 0,0 nein 08:10
08:15-0,4 °C 2,8 °C 3,9 °C 93 % 982,5 hPa 0,0 mm - 1,4 km/h - SSO 5,0 W/qm 0,0 nein 08:15
08:20-0,4 °C 2,8 °C 3,9 °C 93 % 982,3 hPa 0,0 mm - 1,4 km/h - SO 7,0 W/qm 0,0 nein 08:20
08:25-0,4 °C 2,8 °C 3,9 °C 93 % 982,2 hPa 0,0 mm - 1,4 km/h - SSO 9,0 W/qm 0,0 nein 08:25
08:30-0,4 °C 2,8 °C 3,9 °C 93 % 982,1 hPa 0,0 mm - 1,4 km/h - SSO 12,0 W/qm 0,0 nein 08:30
08:35-0,4 °C 2,8 °C 3,9 °C 93 % 982,0 hPa 0,0 mm - 1,4 km/h - SSW 16,0 W/qm 0,0 nein 08:35
08:40-0,4 °C 2,8 °C 3,9 °C 93 % 981,9 hPa 0,0 mm - 1,4 km/h - S 16,0 W/qm 0,0 nein 08:40
08:45-0,3 °C 2,8 °C 3,9 °C 93 % 981,7 hPa 0,0 mm - 3,2 km/h - SO 19,0 W/qm 0,0 nein 08:45
08:50-0,3 °C 2,8 °C 3,9 °C 93 % 981,5 hPa 0,0 mm - 3,2 km/h - SSO 21,0 W/qm 0,0 nein 08:50
08:55-0,3 °C 2,8 °C 3,9 °C 93 % 981,4 hPa 0,0 mm - 3,2 km/h - SSW 19,0 W/qm 0,0 nein 08:55
09:00-0,3 °C 2,8 °C 3,9 °C 93 % 981,5 hPa 0,0 mm - 1,4 km/h - W 19,0 W/qm 0,0 nein 09:00
09:05-0,3 °C 2,8 °C 3,9 °C 93 % 981,3 hPa 0,0 mm 0,0 mm 1,4 km/h - SSO 21,0 W/qm 0,0 nein 09:05
09:10-0,3 °C 2,8 °C 3,9 °C 93 % 981,2 hPa 0,0 mm 0,0 mm 1,4 km/h - SO 23,0 W/qm 0,0 nein 09:10
09:15-0,3 °C 2,8 °C 3,9 °C 93 % 981,3 hPa 0,0 mm - 3,2 km/h - S 26,0 W/qm 0,0 nein 09:15
09:20-0,3 °C 2,8 °C 3,9 °C 93 % 981,2 hPa 0,0 mm - 4,7 km/h - SSO 33,0 W/qm 0,0 nein 09:20
09:25-0,2 °C 2,8 °C 3,9 °C 93 % 981,1 hPa 0,0 mm - 3,2 km/h - SSW 26,0 W/qm 0,0 nein 09:25
09:30-0,2 °C 2,8 °C 3,9 °C 93 % 981,1 hPa 0,0 mm - 3,2 km/h - SSO 23,0 W/qm 0,0 nein 09:30
09:35-0,1 °C 2,8 °C 3,9 °C 93 % 981,1 hPa 0,0 mm - 4,7 km/h - SSO 25,0 W/qm 0,0 nein 09:35
09:40-0,1 °C 2,8 °C 3,9 °C 92 % 981,0 hPa 0,0 mm - 4,7 km/h - SSO 26,0 W/qm 0,0 nein 09:40
09:45-0,1 °C 2,8 °C 3,9 °C 92 % 980,9 hPa 0,0 mm - 4,7 km/h - SSO 25,0 W/qm 0,0 nein 09:45
09:500,0 °C 2,8 °C 3,9 °C 92 % 980,9 hPa 0,0 mm - 3,2 km/h - S 25,0 W/qm 0,0 nein 09:50
09:550,0 °C 2,8 °C 3,9 °C 92 % 980,9 hPa 0,0 mm - 3,2 km/h - SSO 30,0 W/qm 0,0 nein 09:55
UhrzeitTemperaturBoden 10cmBoden 20cmFeuchteLuftdruckNiederschlagEvapotranspirationWindWindböenWindrichtungSolarstrahlungUV-IndexSonne?Uhrzeit
10:000,0 °C 2,8 °C 3,9 °C 92 % 981,0 hPa 0,0 mm - 3,2 km/h - SSO 32,0 W/qm 0,0 nein 10:00
10:050,1 °C 2,8 °C 3,9 °C 92 % 980,9 hPa 0,0 mm 0,0 mm 3,2 km/h - SSO 26,0 W/qm 0,0 nein 10:05
10:100,1 °C 2,8 °C 3,9 °C 92 % 980,9 hPa 0,0 mm 0,0 mm 3,2 km/h - S 28,0 W/qm 0,0 nein 10:10
10:150,1 °C 2,8 °C 3,9 °C 92 % 981,0 hPa 0,0 mm - 3,2 km/h - SSO 37,0 W/qm 0,0 nein 10:15
10:200,1 °C 2,8 °C 3,9 °C 92 % 980,9 hPa 0,0 mm - 4,7 km/h - S 44,0 W/qm 0,0 nein 10:20
10:250,1 °C 2,8 °C 3,9 °C 92 % 981,1 hPa 0,0 mm - 3,2 km/h - SSO 47,0 W/qm 0,0 nein 10:25
10:300,1 °C 2,8 °C 3,9 °C 92 % 980,9 hPa 0,0 mm - 3,2 km/h - OSO 62,0 W/qm 0,0 nein 10:30
10:350,1 °C 2,8 °C 3,9 °C 92 % 980,9 hPa 0,0 mm - 4,7 km/h - S 74,0 W/qm 0,0 nein 10:35
10:400,2 °C 2,8 °C 3,9 °C 92 % 980,9 hPa 0,0 mm - 4,7 km/h - SSO 77,0 W/qm 0,0 nein 10:40
10:450,2 °C 2,8 °C 3,9 °C 92 % 980,9 hPa 0,0 mm - 4,7 km/h - SSO 60,0 W/qm 0,0 nein 10:45
10:500,2 °C 2,8 °C 3,9 °C 92 % 980,9 hPa 0,0 mm - 6,5 km/h - SO 40,0 W/qm 0,0 nein 10:50
10:550,2 °C 2,8 °C 3,9 °C 92 % 980,6 hPa 0,0 mm - 6,5 km/h - S 46,0 W/qm 0,0 nein 10:55
11:000,2 °C 2,8 °C 3,9 °C 92 % 980,5 hPa 0,2 mm - 6,5 km/h - SSO 44,0 W/qm 0,0 nein 11:00
11:050,1 °C 2,8 °C 3,9 °C 92 % 980,6 hPa 0,0 mm 0,0 mm 4,7 km/h - SSO 58,0 W/qm 0,0 nein 11:05
11:100,1 °C 2,8 °C 3,9 °C 92 % 980,4 hPa 0,0 mm 0,0 mm 4,7 km/h - SSO 60,0 W/qm 0,0 nein 11:10
11:150,1 °C 2,8 °C 3,9 °C 92 % 980,3 hPa 0,2 mm - 4,7 km/h - S 60,0 W/qm 0,0 nein 11:15
11:200,1 °C 2,8 °C 3,9 °C 92 % 980,4 hPa 0,0 mm - 4,7 km/h - SSO 40,0 W/qm 0,0 nein 11:20
11:250,1 °C 2,8 °C 3,9 °C 92 % 980,4 hPa 0,0 mm - 4,7 km/h - S 46,0 W/qm 0,0 nein 11:25
11:300,1 °C 2,8 °C 3,9 °C 92 % 980,4 hPa 0,2 mm - 6,5 km/h - SSW 51,0 W/qm 0,0 nein 11:30
11:350,1 °C 2,8 °C 3,9 °C 93 % 980,6 hPa 0,0 mm - 6,5 km/h - S 49,0 W/qm 0,0 nein 11:35
11:400,1 °C 2,8 °C 3,9 °C 93 % 980,7 hPa 0,2 mm - 4,7 km/h - S 42,0 W/qm 0,0 nein 11:40
11:450,1 °C 2,8 °C 3,9 °C 93 % 980,7 hPa 0,2 mm - 3,2 km/h - S 33,0 W/qm 0,0 nein 11:45
11:500,1 °C 2,8 °C 3,9 °C 93 % 980,7 hPa 0,0 mm - 3,2 km/h - SSO 39,0 W/qm 0,0 nein 11:50
11:550,1 °C 2,8 °C 3,9 °C 93 % 980,6 hPa 0,4 mm - 4,7 km/h - SSW 40,0 W/qm 0,0 nein 11:55
UhrzeitTemperaturBoden 10cmBoden 20cmFeuchteLuftdruckNiederschlagEvapotranspirationWindWindböenWindrichtungSolarstrahlungUV-IndexSonne?Uhrzeit
12:000,1 °C 3,3 °C 3,9 °C 93 % 980,6 hPa 0,2 mm - 4,7 km/h - SSO 33,0 W/qm 0,0 nein 12:00
12:050,1 °C 3,3 °C 3,9 °C 93 % 980,4 hPa 0,2 mm 0,1 mm 6,5 km/h - SSW 26,0 W/qm 0,0 nein 12:05
12:100,2 °C 3,3 °C 3,9 °C 93 % 980,5 hPa 0,2 mm 0,1 mm 6,5 km/h - S 28,0 W/qm 0,0 nein 12:10
12:150,2 °C 3,3 °C 3,9 °C 93 % 980,6 hPa 0,2 mm - 7,9 km/h - SSW 32,0 W/qm 0,0 nein 12:15
12:200,3 °C 3,3 °C 3,9 °C 93 % 980,5 hPa 0,2 mm - 9,7 km/h - SW 30,0 W/qm 0,0 nein 12:20
12:250,3 °C 3,3 °C 3,9 °C 94 % 980,5 hPa 0,2 mm - 9,7 km/h - SSW 30,0 W/qm 0,0 nein 12:25
12:300,3 °C 3,3 °C 3,9 °C 93 % 980,6 hPa 0,2 mm - 7,9 km/h - SO 30,0 W/qm 0,0 nein 12:30
12:350,3 °C 3,3 °C 3,9 °C 94 % 980,5 hPa 0,2 mm - 7,9 km/h - SSW 19,0 W/qm 0,0 nein 12:35
12:400,3 °C 3,3 °C 3,9 °C 94 % 980,7 hPa 0,0 mm - 7,9 km/h - S 14,0 W/qm 0,0 nein 12:40
12:450,3 °C 3,3 °C 3,9 °C 94 % 980,6 hPa 0,2 mm - 6,5 km/h - SSO 25,0 W/qm 0,0 nein 12:45
12:500,3 °C 3,3 °C 3,9 °C 94 % 980,6 hPa 0,2 mm - 6,5 km/h - SW 28,0 W/qm 0,0 nein 12:50
12:550,4 °C 3,3 °C 3,9 °C 94 % 980,6 hPa 0,0 mm - 7,9 km/h - SSW 33,0 W/qm 0,0 nein 12:55
13:000,4 °C 3,3 °C 3,9 °C 94 % 980,5 hPa 0,2 mm - 7,9 km/h - S 28,0 W/qm 0,0 nein 13:00
13:050,5 °C 3,3 °C 3,9 °C 94 % 980,5 hPa 0,0 mm 0,1 mm 7,9 km/h - S 37,0 W/qm 0,0 nein 13:05
13:100,6 °C 3,3 °C 3,9 °C 94 % 980,5 hPa 0,0 mm 0,1 mm 9,7 km/h - SSW 44,0 W/qm 0,0 nein 13:10
13:150,6 °C 3,3 °C 3,9 °C 94 % 980,5 hPa 0,0 mm - 9,7 km/h - S 46,0 W/qm 0,0 nein 13:15
13:200,7 °C 3,3 °C 3,9 °C 94 % 980,6 hPa 0,2 mm - 9,7 km/h - SSO 56,0 W/qm 0,0 nein 13:20
13:250,8 °C 3,3 °C 3,9 °C 94 % 980,6 hPa 0,0 mm - 9,7 km/h - S 60,0 W/qm 0,0 nein 13:25
13:300,8 °C 3,3 °C 3,9 °C 94 % 980,7 hPa 0,0 mm - 9,7 km/h - S 74,0 W/qm 0,0 nein 13:30
13:350,9 °C 3,3 °C 3,9 °C 94 % 980,6 hPa 0,0 mm - 7,9 km/h - S 63,0 W/qm 0,0 nein 13:35
13:401,0 °C 3,3 °C 3,9 °C 94 % 980,7 hPa 0,0 mm - 6,5 km/h - WSW 54,0 W/qm 0,0 nein 13:40
13:451,1 °C 3,3 °C 3,9 °C 94 % 980,7 hPa 0,0 mm - 7,9 km/h - S 53,0 W/qm 0,0 nein 13:45
13:501,1 °C 3,3 °C 3,9 °C 94 % 980,9 hPa 0,0 mm - 7,9 km/h - SSO 65,0 W/qm 0,0 nein 13:50
13:551,2 °C 3,3 °C 3,9 °C 94 % 980,9 hPa 0,0 mm - 6,5 km/h - S 74,0 W/qm 0,0 nein 13:55
Gesamt: -0,4 °C 3,2 °C 4,1 °C 93 % 985,7 hPa 4,4 mm 0,3 mm 4,2 km/h nan km/h 0 15,2 W/qm 0,0 nein

Insgesamt 168 Zeilen mal 13 Spalten = 2184 Werte werden angezeigt.

www.wetter-rosstal.de   •   www.wetter-franken.de   •   www.lightningmaps.org   •   Start   •   Kontakt / Datenschutz   •   PC-Kümmerer